Weather History for Ambler, AK

Change the Weather History Date:

Tuesday, April 29, 2014

  Actual Average Record
Temperature  
Mean Temperature 38 °F -  
Max Temperature 44 °F 32 °F 53 °F (2005)
Min Temperature 33 °F 20 °F -5 °F (1982)
Degree Days  
Heating Degree Days 26    
Moisture  
Dew Point 28 °F    
Average Humidity 72    
Maximum Humidity 93    
Minimum Humidity 39    
Precipitation  
Precipitation 0.16 in - - ()
Sea Level Pressure  
Sea Level Pressure 29.91 in    
Wind  
Wind Speed 6 mph (SSW)    
Max Wind Speed 13 mph    
Max Gust Speed 22 mph    
Visibility 9 miles    
Events      
Averages and records for this station are not official NWS values.
T = Trace of Precipitation, MM = Missing Value Source: NWS Daily Summary

Daily Weather History Graph

Daily Weather History Graph

Search for Another Location

Airport:

Trip Planner

Search our weather history database for the weather conditions in past years. The results will help you decide how hot, cold, wet, or windy it might be!

Date:

Astronomy

Apr. 29, 2014 Rise Set
Actual Time 5:45 AM AKDT 11:14 PM AKDT
Civil Twilight 4:16 AM AKDT 12:47 AM AKDT
Nautical Twilight Sun does not rise Sun does not rise
Astronomical Twilight Sun does not rise Sun does not rise
Moon 6:16 AM AKDT (4/29) No Moon Set
Length of Visible Light 20h 30m
Length of Day
17h 29m
New Moon, 0% of the Moon is Illuminated
Apr 29
New Moon
May 6
First Quarter
May 14
Full
May 21
Last Quarter
May 28
New

Hourly Weather History & Observations

Time (AKDT) Temp. Windchill Dew Point Humidity Pressure Visibility Wind Dir Wind Speed Gust Speed Precip Events Conditions
12:16 AM 44.6 °F 40.7 °F 21.2 °F 39% 29.74 in 10.0 mi ESE 6.9 mph - N/A   Overcast
12:36 AM 44.6 °F 41.4 °F 24.8 °F 46% 29.74 in 10.0 mi ESE 5.8 mph - N/A   Overcast
12:56 AM 42.8 °F 40.1 °F 24.8 °F 49% 29.74 in 10.0 mi ENE 4.6 mph - N/A   Mostly Cloudy
1:16 AM 42.8 °F 39.3 °F 24.8 °F 49% 29.74 in 10.0 mi ENE 5.8 mph - N/A   Overcast
1:36 AM 42.8 °F 40.1 °F 24.8 °F 49% 29.73 in 10.0 mi East 4.6 mph - N/A   Overcast
1:56 AM 42.8 °F 40.1 °F 23.0 °F 46% 29.73 in 10.0 mi NNE 4.6 mph - N/A   Overcast
2:16 AM 42.8 °F 39.3 °F 23.0 °F 46% 29.72 in 10.0 mi ENE 5.8 mph - N/A   Mostly Cloudy
2:36 AM 42.8 °F 38.6 °F 24.8 °F 49% 29.73 in 10.0 mi East 6.9 mph - N/A   Overcast
2:56 AM 42.8 °F 38.0 °F 26.6 °F 53% 29.72 in 10.0 mi ESE 8.1 mph - N/A   Overcast
3:16 AM 41.0 °F 33.9 °F 26.6 °F 57% 29.73 in 10.0 mi SE 12.7 mph 18.4 mph N/A   Overcast
3:36 AM 39.2 °F 31.6 °F 26.6 °F 61% 29.73 in 10.0 mi SE 12.7 mph 21.9 mph N/A   Overcast
3:56 AM 41.0 °F 34.7 °F 26.6 °F 57% 29.74 in 10.0 mi South 10.4 mph 20.7 mph N/A   Overcast
4:16 AM 39.2 °F 32.5 °F 24.8 °F 56% 29.76 in 10.0 mi SSW 10.4 mph 16.1 mph N/A   Overcast
4:36 AM 39.2 °F 33.0 °F 24.8 °F 56% 29.77 in 10.0 mi SW 9.2 mph - N/A   Overcast
4:56 AM 37.4 °F - 32.0 °F 81% 29.77 in 10.0 mi Calm Calm - N/A   Overcast
5:16 AM 37.4 °F 34.9 °F 33.8 °F 87% 29.76 in 10.0 mi South 3.5 mph - 0.01 in   Mostly Cloudy
5:36 AM 37.4 °F 34.9 °F 33.8 °F 87% 29.77 in 10.0 mi SSW 3.5 mph - 0.01 in   Mostly Cloudy
5:56 AM 37.4 °F 34.9 °F 32.0 °F 81% 29.78 in 10.0 mi SSW 3.5 mph - 0.01 in   Overcast
6:16 AM 37.4 °F - 32.0 °F 81% 29.77 in 7.0 mi Calm Calm - N/A   Overcast
6:36 AM 35.6 °F 28.6 °F 30.2 °F 81% 29.79 in 10.0 mi South 9.2 mph - 0.01 in   Overcast
6:56 AM 35.6 °F 30.7 °F 30.2 °F 81% 29.79 in 5.0 mi South 5.8 mph - 0.01 in   Overcast
7:16 AM 35.6 °F 29.9 °F 32.0 °F 87% 29.79 in 5.0 mi South 6.9 mph - 0.01 in   Overcast
7:36 AM 33.8 °F 28.6 °F 30.2 °F 87% 29.79 in 7.0 mi SSW 5.8 mph - 0.02 in   Overcast
7:56 AM 33.8 °F 29.6 °F 32.0 °F 93% 29.80 in 5.0 mi SSW 4.6 mph - 0.02 in   Overcast
8:16 AM 33.8 °F 28.6 °F 30.2 °F 87% 29.80 in 4.0 mi South 5.8 mph - 0.02 in   Overcast
8:36 AM 33.8 °F 29.6 °F 30.2 °F 87% 29.80 in 5.0 mi South 4.6 mph - 0.04 in   Overcast
8:56 AM 33.8 °F 29.6 °F 30.2 °F 87% 29.81 in 2.5 mi SSW 4.6 mph - 0.06 in   Overcast
9:16 AM 33.8 °F 28.6 °F 30.2 °F 87% 29.81 in 5.0 mi SSW 5.8 mph - 0.01 in   Overcast
9:36 AM 33.8 °F 29.6 °F 30.2 °F 87% 29.82 in 2.0 mi SSW 4.6 mph - 0.03 in   Overcast
9:56 AM 33.8 °F 30.8 °F 30.2 °F 87% 29.82 in 3.0 mi SSW 3.5 mph - 0.04 in   Overcast
10:16 AM 33.8 °F 29.6 °F 32.0 °F 93% 29.83 in 10.0 mi South 4.6 mph - N/A   Overcast
10:36 AM 33.8 °F 29.6 °F 32.0 °F 93% 29.84 in 10.0 mi SSW 4.6 mph - N/A   Overcast
10:56 AM 33.8 °F 28.6 °F 32.0 °F 93% 29.85 in 9.0 mi SW 5.8 mph - 0.01 in   Overcast
11:16 AM 33.8 °F 27.0 °F 32.0 °F 93% 29.85 in 5.0 mi SW 8.1 mph - 0.01 in   Overcast
11:36 AM 35.6 °F 29.9 °F 33.8 °F 93% 29.86 in 10.0 mi SW 6.9 mph - 0.01 in   Overcast
11:56 AM 35.6 °F 29.9 °F 32.0 °F 87% 29.87 in 10.0 mi SW 6.9 mph - 0.01 in   Overcast
12:16 PM 35.6 °F 28.0 °F 33.8 °F 93% 29.88 in 10.0 mi SW 10.4 mph - N/A   Overcast
12:36 PM 35.6 °F 29.2 °F 30.2 °F 81% 29.89 in 10.0 mi SW 8.1 mph - N/A   Overcast
12:56 PM 35.6 °F 29.2 °F 30.2 °F 81% 29.90 in 10.0 mi WSW 8.1 mph 16.1 mph N/A   Overcast
1:16 PM 35.6 °F 29.2 °F 30.2 °F 81% 29.91 in 10.0 mi SW 8.1 mph - N/A   Overcast
1:36 PM 37.4 °F 32.1 °F 30.2 °F 75% 29.92 in 10.0 mi West 6.9 mph - N/A   Overcast
1:56 PM 35.6 °F 29.2 °F 30.2 °F 81% 29.93 in 10.0 mi SW 8.1 mph - N/A   Overcast
2:16 PM 35.6 °F 30.7 °F 30.2 °F 81% 29.95 in 10.0 mi SSW 5.8 mph - N/A   Mostly Cloudy
2:36 PM 35.6 °F 29.9 °F 28.4 °F 75% 29.96 in 3.0 mi SW 6.9 mph 16.1 mph N/A   Mostly Cloudy
2:56 PM 35.6 °F 29.2 °F 28.4 °F 75% 29.97 in 10.0 mi SW 8.1 mph - N/A   Overcast
3:16 PM 35.6 °F 27.5 °F 28.4 °F 75% 29.98 in 10.0 mi SW 11.5 mph 18.4 mph N/A   Overcast
3:36 PM 35.6 °F 28.6 °F 28.4 °F 75% 29.99 in 10.0 mi SW 9.2 mph - N/A   Mostly Cloudy
3:56 PM 35.6 °F 31.7 °F 28.4 °F 75% 30.00 in 10.0 mi SSW 4.6 mph - N/A   Overcast
4:16 PM 35.6 °F 28.6 °F 28.4 °F 75% 30.00 in 10.0 mi SSW 9.2 mph - N/A   Overcast
4:36 PM 37.4 °F 30.3 °F 28.4 °F 70% 30.01 in 10.0 mi WSW 10.4 mph 16.1 mph N/A   Overcast
4:56 PM 37.4 °F 32.1 °F 24.8 °F 60% 30.02 in 10.0 mi WSW 6.9 mph - N/A   Overcast
5:16 PM 37.4 °F 31.4 °F 24.8 °F 60% 30.02 in 10.0 mi SSW 8.1 mph - N/A   Overcast
5:36 PM 37.4 °F 30.8 °F 24.8 °F 60% 30.03 in 10.0 mi SSW 9.2 mph - N/A   Overcast
5:56 PM 37.4 °F 31.4 °F 26.6 °F 65% 30.05 in 10.0 mi SW 8.1 mph - N/A   Overcast
6:16 PM 37.4 °F 30.3 °F 24.8 °F 60% 30.05 in 10.0 mi SW 10.4 mph - N/A   Overcast
6:36 PM 37.4 °F 31.4 °F 24.8 °F 60% 30.06 in 10.0 mi SW 8.1 mph - N/A   Overcast
6:56 PM 37.4 °F 32.8 °F 24.8 °F 60% 30.07 in 10.0 mi SSW 5.8 mph - N/A   Overcast
7:16 PM 37.4 °F 32.1 °F 24.8 °F 60% 30.08 in 10.0 mi SSW 6.9 mph - N/A   Overcast
7:36 PM 37.4 °F 31.4 °F 24.8 °F 60% 30.08 in 10.0 mi SW 8.1 mph - N/A   Overcast
7:56 PM 37.4 °F 30.8 °F 24.8 °F 60% 30.09 in 10.0 mi SW 9.2 mph - N/A   Overcast
8:16 PM 37.4 °F 31.4 °F 24.8 °F 60% 30.10 in 10.0 mi SSW 8.1 mph - N/A   Overcast
8:36 PM 37.4 °F 34.9 °F 24.8 °F 60% 30.11 in 10.0 mi SSW 3.5 mph - N/A   Overcast
8:56 PM 37.4 °F 33.8 °F 26.6 °F 65% 30.12 in 10.0 mi SSW 4.6 mph - N/A   Overcast
9:16 PM 35.6 °F 32.8 °F 26.6 °F 70% 30.13 in 10.0 mi SSW 3.5 mph - N/A   Overcast
9:36 PM 35.6 °F 32.8 °F 26.6 °F 70% 30.13 in 10.0 mi SSW 3.5 mph - N/A   Overcast
9:56 PM 35.6 °F - 26.6 °F 70% 30.14 in 10.0 mi Calm Calm - N/A   Overcast
10:16 PM 35.6 °F - 26.6 °F 70% 30.15 in 10.0 mi Calm Calm - N/A   Overcast
10:36 PM 35.6 °F 31.7 °F 26.6 °F 70% 30.15 in 10.0 mi SE 4.6 mph - N/A   Overcast
10:56 PM 35.6 °F 32.8 °F 26.6 °F 70% 30.16 in 10.0 mi SSE 3.5 mph - N/A   Overcast
11:16 PM 35.6 °F - 26.6 °F 70% 30.16 in 10.0 mi Calm Calm - N/A   Overcast
11:36 PM 33.8 °F 30.8 °F 26.6 °F 75% 30.17 in 10.0 mi SSE 3.5 mph - N/A   Mostly Cloudy
11:56 PM 33.8 °F 30.8 °F 26.6 °F 75% 30.18 in 10.0 mi South 3.5 mph - N/A   Mostly Cloudy